Wind_Speed
46 46 45 45 45 44 44 43 42 41 41 41 40 39 39 38 37 36 35 35 35 35 35 34 34 34 33 33 33 32 32 31 31 30 30 29 29 28 28 28 28 27 27
48 48 48 48 47 47 47 46 45 44 44 43 43 42 41 41 40 39 38 38 37 37 36 36 36 36 36 35 34 34 34 33 32 32 31 31 31 30 29 29 29 29 28
51 51 52 51 50 50 50 49 48 47 47 47 46 44 44 43 43 42 41 40 39 38 38 37 37 37 38 38 37 36 36 35 34 34 33 33 32 32 31 31 31 30 30
52 52 53 53 53 53 53 52 51 50 49 49 49 48 47 46 45 44 43 42 41 40 39 39 39 38 39 39 39 38 38 37 36 36 35 34 34 33 33 33 32 31 30
52 53 53 53 53 54 54 54 54 53 52 52 52 51 50 49 49 48 46 45 45 44 43 42 41 41 41 41 41 41 40 40 39 37 37 36 36 35 35 34 33 32 31
52 52 53 54 54 54 54 55 56 55 54 54 54 53 52 51 51 50 49 48 48 47 45 45 44 43 43 43 43 42 42 41 40 39 38 38 37 37 36 35 35 34 33
51 52 53 53 54 54 54 55 55 55 55 55 55 55 54 52 52 51 50 50 49 48 47 46 44 44 43 43 43 44 44 43 42 41 40 40 39 38 38 37 37 35 34
49 50 52 52 53 54 54 54 54 54 54 56 56 57 56 54 52 51 51 50 50 50 49 48 47 47 46 45 44 44 45 45 44 43 42 41 41 40 39 39 37 36 36
47 47 49 50 51 53 53 53 54 53 54 55 56 56 57 56 54 52 50 50 51 51 51 50 50 49 48 47 46 46 46 46 45 45 44 43 42 41 41 39 38 37 37
44 45 46 47 49 51 51 52 53 53 52 52 54 55 56 57 56 54 52 51 52 52 51 51 51 50 49 49 48 48 47 47 46 46 46 45 43 42 41 40 40 39 37
41 43 45 46 47 48 50 50 51 53 53 52 52 54 55 56 56 56 54 52 52 52 52 53 52 52 52 51 50 50 49 48 46 47 47 46 45 44 43 42 41 40 39
37 39 42 44 45 47 49 49 51 52 54 54 53 52 53 54 55 55 56 55 54 53 52 52 52 51 52 52 51 51 51 49 48 48 48 47 47 46 45 44 43 42 40
35 36 38 40 43 46 48 49 51 52 53 54 54 53 53 52 53 55 55 55 54 53 53 53 53 52 52 52 52 52 52 50 49 49 49 48 47 47 46 45 44 43 42
33 35 36 37 39 42 44 46 47 49 51 52 53 52 53 53 54 55 55 55 55 54 54 53 54 55 55 53 52 52 52 52 51 51 50 49 49 48 48 47 46 44 43
32 33 34 34 36 38 40 43 45 46 48 50 51 52 52 52 53 54 54 55 56 56 55 54 55 55 56 55 54 53 53 52 52 52 51 51 51 50 49 49 48 46 44
32 32 33 33 35 36 38 40 42 43 45 46 48 50 51 52 53 54 55 55 55 56 56 56 57 56 56 56 56 56 55 54 54 54 54 53 52 52 51 50 49 48 47
32 33 33 34 34 36 37 38 39 41 43 45 47 49 50 51 52 52 53 55 56 57 57 57 57 58 58 58 58 59 59 58 57 56 56 55 54 54 53 52 51 50 49
32 33 33 34 35 36 37 39 39 40 41 43 45 47 49 51 52 53 53 55 57 58 59 58 58 58 59 60 59 59 60 60 59 59 59 58 56 55 55 54 53 52 52
31 32 33 34 35 36 36 37 38 40 40 42 44 45 48 50 51 54 55 56 57 58 59 59 60 61 61 60 60 61 61 61 61 60 59 57 57 57 56 55 54 55 53
32 33 34 35 36 37 38 39 40 41 43 44 45 46 47 49 51 53 54 56 57 58 59 59 60 62 62 61 62 62 62 62 62 61 60 59 58 58 58 57 56 56 56
33 34 35 35 36 37 39 40 41 43 44 45 46 48 49 50 51 53 54 55 56 57 59 60 60 61 61 62 62 62 62 61 60 61 62 61 61 61 60 60 59 58 58
34 35 35 36 37 39 40 41 42 43 44 45 46 47 49 50 51 53 54 56 57 58 59 60 60 61 62 63 63 63 64 64 62 61 62 63 63 62 62 61 61 61 60
35 36 36 37 38 39 40 41 42 43 44 46 47 48 49 49 51 52 53 55 56 57 58 59 60 60 62 64 64 64 64 64 62 61 63 64 64 64 64 63 62 61 61
36 36 36 37 38 39 40 41 42 43 44 45 46 46 48 49 51 52 53 54 55 56 57 58 59 60 61 62 63 63 63 63 62 62 63 63 64 66 67 66 64 62 61
37 38 38 39 40 41 42 43 43 43 44 45 46 47 49 50 52 53 53 54 54 55 56 58 59 60 60 60 61 62 63 63 62 61 61 61 61 63 64 64 63 62 61
38 39 39 40 41 42 43 43 43 43 44 45 47 48 50 51 51 52 53 53 54 54 55 56 57 57 57 58 59 60 61 62 61 60 60 60 59 61 61 61 61 61 61
Wind_Direction
262 261 261 261 261 261 262 261 261 261 261 261 260 260 261 262 262 262 263 263 263 262 262 262 263 264 264 265 266 267 268 269 271 272 274 276 278 281 283 286 288 290 292
262 262 261 260 260 260 260 261 261 260 260 260 260 260 260 260 261 262 263 263 262 262 262 262 262 262 263 263 265 266 267 268 269 271 272 275 277 279 281 283 286 288 289
262 262 261 261 260 260 259 259 259 259 259 259 260 259 259 259 260 261 262 262 262 261 261 262 262 262 262 262 263 265 266 267 268 270 271 273 275 277 279 281 283 285 287
262 262 261 261 260 259 259 258 258 258 258 258 258 258 258 259 259 259 261 261 260 260 260 261 261 261 262 262 262 263 265 266 267 269 270 271 273 275 278 279 281 282 284
262 261 260 260 260 259 258 258 258 258 257 257 258 258 258 258 258 258 258 260 259 259 260 260 260 260 261 261 262 263 264 265 266 267 268 270 272 274 275 276 279 280 282
261 261 260 260 259 259 258 257 257 257 257 256 256 257 258 257 257 258 257 258 258 258 258 259 259 259 260 261 261 262 262 264 265 266 267 268 271 273 273 274 277 278 279
261 261 259 258 258 258 258 257 257 256 255 256 255 255 255 255 256 257 257 257 257 258 258 258 258 259 259 259 260 261 262 263 264 265 265 267 269 271 272 273 275 276 277
263 261 259 258 256 257 257 256 255 255 255 256 256 256 255 256 255 255 257 257 257 257 257 257 257 258 258 259 260 260 261 261 262 264 266 267 268 269 271 272 271 274 276
263 262 259 258 257 257 257 255 254 253 253 253 255 256 256 255 255 255 256 257 257 256 256 256 255 255 257 259 259 260 261 262 262 263 264 265 267 267 268 271 271 272 274
264 262 260 260 259 258 257 256 253 253 253 253 254 255 256 256 255 254 255 256 257 256 255 255 255 255 256 257 258 259 261 262 262 263 263 264 264 265 266 267 269 271 272
266 264 262 261 261 259 258 257 255 254 254 254 254 255 256 257 257 256 254 254 255 255 255 255 255 255 255 257 258 259 259 260 261 262 261 262 263 264 265 265 266 267 268
270 268 266 264 262 260 259 258 257 256 256 256 256 256 256 257 257 256 256 255 255 255 256 255 255 256 257 256 257 259 258 258 259 261 261 261 262 263 263 262 263 264 265
273 272 270 267 264 262 260 259 258 258 257 256 257 257 257 258 258 257 257 257 257 256 257 256 256 256 257 256 256 257 257 257 259 261 262 261 261 262 261 261 262 262 263
276 275 273 271 269 266 263 261 260 260 258 257 257 258 259 260 260 258 258 258 257 256 257 257 257 257 257 257 257 257 258 258 259 259 260 260 260 261 261 260 260 260 261
277 276 274 273 271 269 266 264 262 261 260 259 259 258 259 259 260 259 258 258 257 257 257 256 257 258 257 256 258 258 259 258 258 258 259 259 259 260 260 259 258 258 259
278 277 275 274 272 271 269 267 265 263 262 261 260 259 259 260 260 259 257 257 258 257 256 257 258 258 258 257 258 258 258 258 258 257 258 258 258 259 259 258 258 259 259
280 278 276 275 274 272 270 268 266 266 264 262 260 260 260 261 260 260 259 258 258 258 258 258 258 258 258 258 258 258 257 257 257 257 257 257 257 257 258 258 258 258 257
282 280 278 276 274 273 272 270 269 267 266 265 263 261 261 261 261 260 260 260 260 260 260 258 258 258 259 259 257 256 256 256 256 256 257 257 256 256 257 257 258 257 257
286 283 280 278 276 275 273 272 270 269 268 268 266 264 264 263 262 262 262 262 261 261 261 260 259 259 259 259 258 257 256 255 255 256 255 255 255 255 256 256 257 256 256
288 285 284 282 279 277 276 275 273 272 271 270 269 268 267 266 265 264 264 263 263 262 262 261 261 260 259 259 259 258 257 257 256 256 256 255 255 256 256 256 257 256 255
291 289 287 285 282 281 279 278 276 274 274 273 271 270 269 268 267 266 266 265 265 264 263 262 261 260 260 260 259 259 257 257 256 256 256 255 255 255 255 256 256 256 255
295 292 290 287 285 284 283 281 279 277 276 275 273 272 271 270 269 268 268 267 266 266 265 263 262 261 260 260 259 259 258 257 257 257 257 254 255 255 255 255 254 254 254
297 295 293 290 288 287 286 284 282 281 279 278 276 275 274 273 272 271 270 269 268 267 266 265 264 263 262 261 260 260 259 259 259 258 258 256 255 255 254 253 253 252 252
301 298 295 293 292 290 288 286 285 283 282 280 279 278 277 276 275 274 272 271 270 269 268 266 266 265 263 262 260 260 259 259 258 258 258 257 255 254 254 253 252 252 250
303 300 298 296 295 293 291 289 287 286 284 282 281 280 279 278 277 276 275 273 271 270 269 267 267 266 264 263 261 260 259 259 258 258 258 257 255 253 252 251 250 249 248
304 302 300 299 297 295 294 292 290 289 287 286 284 283 281 280 279 278 277 275 273 272 271 269 267 266 265 264 263 261 260 258 258 258 256 255 254 252 250 249 248 248 247
Height
5801 5802 5804 5805 5806 5807 5808 5809 5810 5811 5812 5813 5814 5815 5816 5817 5817 5818 5819 5820 5820 5821 5821 5822 5823 5823 5824 5824 5824 5824 5824 5824 5824 5824 5824 5824 5823 5822 5822 5821 5820 5819 5818
5790 5791 5793 5794 5796 5797 5798 5799 5801 5802 5803 5804 5805 5806 5807 5808 5809 5810 5811 5811 5812 5813 5813 5814 5815 5816 5816 5817 5817 5817 5817 5817 5817 5817 5817 5817 5817 5816 5816 5815 5814 5813 5812
5779 5780 5781 5783 5785 5786 5787 5788 5790 5791 5792 5794 5795 5796 5798 5799 5800 5801 5802 5803 5803 5804 5805 5806 5807 5807 5808 5809 5809 5809 5810 5810 5810 5810 5810 5810 5810 5810 5809 5808 5808 5807 5806
5766 5767 5769 5771 5772 5773 5775 5776 5778 5779 5781 5783 5784 5786 5787 5788 5790 5791 5792 5793 5794 5795 5796 5797 5798 5798 5799 5800 5801 5801 5802 5802 5802 5803 5803 5803 5803 5802 5802 5801 5801 5800 5799
5753 5754 5756 5758 5759 5760 5762 5763 5765 5767 5769 5771 5772 5774 5776 5777 5779 5780 5782 5783 5784 5785 5787 5788 5788 5789 5790 5791 5792 5792 5793 5793 5794 5794 5795 5795 5795 5795 5794 5794 5793 5793 5792
5740 5741 5743 5744 5746 5747 5749 5750 5752 5754 5756 5758 5760 5762 5764 5765 5767 5769 5771 5772 5773 5775 5776 5777 5778 5779 5780 5781 5782 5783 5783 5784 5785 5785 5786 5786 5786 5786 5786 5786 5786 5786 5785
5727 5728 5729 5731 5733 5734 5736 5737 5739 5741 5743 5745 5746 5748 5750 5752 5754 5757 5758 5760 5762 5763 5764 5766 5767 5769 5770 5770 5772 5773 5773 5774 5775 5776 5777 5777 5777 5777 5778 5778 5778 5778 5777
5714 5715 5716 5717 5719 5721 5722 5723 5726 5728 5730 5732 5733 5735 5737 5740 5742 5744 5746 5748 5750 5751 5753 5754 5756 5758 5759 5760 5761 5762 5763 5764 5765 5766 5767 5768 5768 5768 5768 5768 5769 5769 5769
5703 5703 5703 5705 5706 5707 5709 5710 5713 5714 5716 5718 5719 5721 5724 5727 5730 5732 5734 5736 5737 5739 5741 5742 5744 5745 5747 5749 5750 5751 5752 5753 5754 5755 5756 5757 5758 5758 5759 5759 5760 5760 5760
5691 5691 5692 5693 5694 5695 5696 5697 5699 5701 5703 5705 5706 5708 5710 5713 5716 5719 5722 5723 5724 5726 5728 5730 5731 5733 5735 5736 5738 5739 5741 5742 5743 5744 5746 5747 5748 5748 5749 5750 5750 5751 5751
5681 5681 5681 5681 5682 5683 5684 5685 5686 5688 5690 5692 5694 5695 5696 5698 5701 5704 5708 5710 5712 5714 5715 5717 5719 5721 5722 5724 5726 5727 5729 5730 5731 5733 5734 5735 5737 5738 5739 5740 5740 5741 5741
5671 5671 5670 5670 5670 5671 5672 5673 5674 5676 5677 5679 5681 5682 5684 5686 5688 5689 5693 5696 5698 5700 5702 5704 5706 5708 5709 5711 5713 5714 5716 5717 5719 5720 5722 5723 5725 5726 5728 5729 5729 5730 5731
5663 5662 5660 5659 5659 5660 5660 5661 5662 5664 5665 5666 5668 5669 5671 5672 5674 5676 5679 5681 5684 5687 5688 5690 5692 5694 5696 5697 5699 5701 5703 5704 5706 5708 5710 5712 5713 5714 5715 5717 5718 5719 5720
5654 5653 5651 5649 5649 5648 5648 5649 5649 5651 5652 5654 5655 5656 5658 5659 5661 5663 5665 5667 5669 5672 5675 5677 5678 5680 5682 5684 5686 5687 5689 5691 5693 5695 5697 5699 5701 5702 5703 5705 5706 5708 5709
5646 5644 5642 5640 5639 5638 5638 5638 5638 5639 5640 5641 5643 5644 5645 5646 5647 5649 5650 5652 5655 5658 5661 5664 5665 5666 5667 5669 5671 5673 5676 5678 5680 5681 5684 5686 5687 5689 5690 5692 5694 5696 5697
5637 5635 5633 5632 5630 5629 5628 5627 5627 5627 5628 5628 5629 5630 5631 5633 5634 5635 5637 5638 5639 5642 5646 5650 5651 5652 5653 5654 5657 5659 5661 5663 5665 5667 5669 5671 5673 5675 5677 5679 5681 5683 5685
5628 5626 5624 5622 5621 5619 5618 5617 5616 5616 5615 5615 5616 5617 5618 5619 5620 5621 5622 5624 5625 5626 5629 5634 5635 5636 5637 5639 5641 5643 5645 5647 5649 5652 5654 5656 5658 5660 5663 5665 5667 5669 5672
5619 5617 5615 5613 5612 5610 5608 5607 5606 5605 5604 5603 5603 5604 5604 5605 5606 5607 5608 5609 5610 5611 5613 5616 5618 5619 5621 5623 5625 5627 5628 5630 5633 5635 5637 5640 5642 5645 5647 5650 5652 5655 5657
5610 5608 5606 5604 5602 5600 5598 5597 5595 5593 5592 5591 5591 5591 5591 5591 5591 5592 5592 5593 5594 5595 5596 5598 5601 5602 5603 5604 5606 5609 5611 5612 5615 5617 5620 5622 5625 5628 5631 5634 5636 5639 5642
5601 5599 5596 5594 5591 5590 5588 5586 5584 5582 5580 5579 5578 5577 5577 5576 5576 5576 5576 5576 5577 5577 5578 5579 5582 5583 5585 5586 5587 5590 5592 5594 5597 5599 5601 5605 5608 5611 5614 5617 5621 5623 5627
5593 5589 5586 5583 5581 5579 5577 5574 5572 5570 5568 5566 5565 5563 5562 5561 5561 5560 5560 5560 5560 5560 5560 5561 5562 5564 5566 5567 5569 5570 5573 5575 5578 5580 5582 5586 5589 5593 5596 5599 5603 5606 5610
5583 5580 5577 5574 5571 5568 5565 5562 5560 5558 5555 5553 5551 5549 5547 5546 5545 5544 5543 5542 5542 5541 5542 5542 5543 5545 5546 5547 5549 5550 5553 5555 5559 5562 5562 5567 5569 5573 5577 5581 5584 5588 5592
5574 5570 5567 5563 5560 5557 5553 5550 5547 5544 5541 5539 5537 5534 5532 5530 5529 5527 5526 5524 5523 5522 5522 5523 5524 5524 5526 5527 5528 5530 5531 5534 5538 5540 5541 5546 5548 5552 5556 5560 5565 5569 5573
5565 5561 5556 5553 5549 5545 5541 5538 5534 5531 5528 5525 5522 5519 5517 5515 5512 5510 5509 5507 5506 5504 5504 5504 5504 5504 5504 5505 5506 5508 5509 5512 5516 5518 5519 5524 5528 5531 5535 5539 5544 5549 5554
5555 5550 5546 5541 5537 5533 5528 5525 5521 5518 5514 5511 5508 5504 5501 5499 5496 5493 5492 5490 5489 5486 5485 5484 5484 5484 5484 5484 5485 5486 5488 5491 5495 5498 5498 5502 5506 5509 5514 5519 5524 5529 5534
5545 5540 5535 5530 5525 5521 5516 5511 5507 5504 5500 5497 5493 5489 5485 5482 5479 5475 5473 5471 5470 5468 5467 5466 5465 5464 5464 5464 5464 5465 5467 5470 5473 5478 5479 5481 5485 5489 5494 5500 5504 5509 5514